{"data":{"norad_id":65285,"intl_designator":"2025-184N","name":"STARLINK-34995","alt_names":[],"object_type":"PAYLOAD","status":"ACTIVE","operator":null,"country":"US","launch_date":"2025-08-22","launch_site_code":"AFWTR","launch_vehicle":null,"mission":null,"orbit_class":"UNKNOWN","rcs_meters":null,"size_class":null,"mass_kg":null,"dimensions":null,"purposes":["comms"],"wikipedia_slug":null,"has_3d_model":false,"image_url":null,"decayed_at":null,"tle_current":{"epoch":"2026-05-25T03:31:57.241920Z","epoch_age_seconds":62417,"freshness":"FRESH","line1":"1 65285U 25184N   26145.14719030  .00003381  00000+0  23823-3 0  9994","line2":"2 65285  97.4473 197.6297 0002432 115.0831 245.0649 15.05659844 42804","mean_motion":15.05659844,"eccentricity":0.0002432,"inclination_deg":97.4473,"raan_deg":197.6297,"arg_perigee_deg":115.0831,"mean_anomaly_deg":245.0649,"bstar":0.00023823,"rev_number":4280,"period_min":95.639131623145,"perigee_km":547.79616202202,"apogee_km":551.16575539713,"semimajor_km":6927.6179587096,"source":"CELESTRAK","updated_at":"2026-05-25T13:38:20.731870Z"}}}